Location: Kalisz
(51.7636°N, 18.0893°E)
Time: 02:25:47
(UTC+01:00)

ISS - Pass Details

Date: 01 February 2019
Orbit: 403 x 411 km, 51.6° (Epoch: 17 February)

Event Time Altitude Azimuth Distance (km) Brightness Sun altitude
Rises 17:19:23 0° 260° (W) 2,331 2.3 -7.1°
Reaches altitude 10° 17:21:28 10° 260° (W) 1,473 0.7 -7.4°
Maximum altitude 17:24:46 84° 175° (S) 417 -3.8 -7.8°
Enters shadow 17:27:56 11° 85° (E) 1,418 -1.7 -8.3°
